This is the latest recevied weather packets stored in our database for station/object W4KBW. If no packets are shown the sender has not sent any weather packets the latest 10 day(s).
| Time | Temp. | Humidity | Pressure | Rain* | Wind** | Luminosity | Snow |
|---|---|---|---|---|---|---|---|
| 1777845142 | 24.44° C | 100% | 1014.9 hPa | 0 mm | - | - | - |
| 1777844212 | 25° C | 100% | 1014.7 hPa | 0 mm | - | - | - |
| 1777843451 | 25° C | 100% | 1014.7 hPa | 0 mm | - | - | - |
| 1777843312 | 25° C | 100% | 1014.7 hPa | 0 mm | - | - | - |
| 1777842523 | 25° C | 100% | 1014.8 hPa | 0 mm | - | - | - |
| 1777842412 | 25° C | 100% | 1014.8 hPa | 0 mm | - | - | - |
| 1777841555 | 25.56° C | 100% | 1014.7 hPa | 0 mm | - | - | - |
| 1777841482 | 25.56° C | 100% | 1014.7 hPa | 0 mm | - | - | - |
| 1777840952 | 25.56° C | 100% | 1014.9 hPa | 0 mm | - | - | - |
| 1777840552 | 25.56° C | 100% | 1014.9 hPa | 0 mm | - | - | - |
| 1777839622 | 26.11° C | 100% | 1014.9 hPa | 0 mm | - | - | - |
| 1777838692 | 25.56° C | 100% | 1015.1 hPa | 0 mm | - | - | - |
| 1777837995 | 25° C | 100% | 1015.4 hPa | 0 mm | - | - | - |
| 1777837792 | 25° C | 100% | 1015.4 hPa | 0 mm | - | - | - |
| 1777836892 | 25° C | 100% | 1015.7 hPa | 0 mm | - | - | - |
| 1777836065 | 25° C | 100% | 1015.9 hPa | 0 mm | - | - | - |
| 1777835962 | 25° C | 100% | 1015.9 hPa | 0 mm | - | - | - |
| 1777835062 | 26.11° C | 100% | 1015.9 hPa | 0 mm | - | - | - |
| 1777834350 | 26.67° C | 100% | 1016.2 hPa | 0 mm | - | - | - |
| 1777834162 | 26.67° C | 100% | 1016.2 hPa | 0 mm | - | - | - |
| 1777833574 | 26.67° C | 100% | 1016.4 hPa | 0 mm | - | - | - |
| 1777833262 | 26.67° C | 100% | 1016.4 hPa | 0 mm | - | - | - |
| 1777832409 | 26.67° C | 100% | 1016.4 hPa | 0 mm | - | - | - |
| 1777832332 | 26.67° C | 100% | 1016.4 hPa | 0 mm | - | - | - |
| 1777831559 | 26.11° C | 100% | 1016.5 hPa | 0 mm | - | - | - |
* Rain latest hour (hover to see other rain measurements)
** Current wind speed in m/s (hover to see current wind gust speed)